Weather in Kremenki

Russia / Ulyanovsk Oblast     54°30′32″N   48°52′03″E
temp.,
°C
wind,
m/s
gust,
m/s
humid.,
%
clouds,
%
prec.,
mm/h
press.,
hPa
HPBL,
m
23 april, fri
fri2301:00+5sse48845 0.1 1024105
04:00+3sse46915 0.1 102566
07:00+4sse34925 0.0 102572
10:00+7s24792 0.0 1025244
13:00+8se1373100 0.0 1024547
16:00+9sw1372100 0.0 1023724
19:00+9ese3574100 0.1 1022141
22:00+7e3480100 0.1 102053
24 april, sat
sat2401:00+6ene3386100 0.0 101840
04:00+5ene3388100 0.0 101641
07:00+5e4790100 0.0 1015177
10:00+5ese3593100 1.0 1014222
13:00+5ne2393100 0.6 1012189
16:00+6ese2386100 0.8 1011329
19:00+6ese458711 0.0 1010197
22:00+5se4793100 0.1 1008144
25 april, sun
sun2501:00+4w61193100 0.8 1007317
04:00+3wsw5118232 0.8 1008221
07:00+4wsw6117830 0.0 1008370
10:00+5wsw596339 0.0 1009683
13:00+3wsw4979100 1.3 1010485
16:00+6w6115999 1.6 10121013
19:00+5wsw511645 0.3 1013319
22:00+4sw5107099 0.3 1015154
26 april, mon
mon2601:00+3sw612730 0.0 1016221
04:00+2ssw49784 0.0 1017136
07:00+3ssw510768 0.0 1018211
10:00+6ssw611575 0.0 1017684
13:00+8ssw71146100 0.0 10161028
16:00+7wsw4861100 0.0 1016679
19:00+6wsw2270100 0.0 101450
22:00+5sse0073100 0.0 101411
27 april, tue
tue2701:00+4sse3374100 0.0 101323
04:00+3s367670 0.0 101176
07:00+3wsw498524 0.0 1012262
10:00+4wsw588099 0.1 1012477
13:00+6w376236 0.0 1012952
16:00+7wsw595495 0.0 1011937
19:00+5w496518 0.3 1012277
22:00+4wsw487047 0.4 1013111